Regional Weather Roundup
Issued by NWS Midland/Odessa, TX

Home | Current Version | Previous Version | Text Only | Print | Product List | Glossary On
Versions: 1 2 3 4 5 6 7 8 9 10 11 12 13 14 15 16 17 18 19 20 21 22 23 24 25 26 27 28 29 30 31 32 33 34 35 36 37 38 39 40 41 42 43 44 45 46 47 48 49 50
000
ASUS44 KMAF 280410
RWRMAF
MIDLAND AREA WEATHER ROUNDUP
NATIONAL WEATHER SERVICE MIDLAND TX
1100 PM CDT MON MAR 27 2017

...IN SOUTHWEST TEXAS AND SOUTHEAST NEW MEXICO...

CITY           SKY/WX    TMP DP  RH WIND       PRES   REMARKS
ALPINE         CLEAR     60  22  23 SE6       29.92S
ANDREWS        FAIR      61  31  32 SE8       29.84S
ARTESIA        PTCLDY    72  28  20 S14       29.80R
BIG SPRING     CLEAR     66  39  37 E10       29.86R
CARLSBAD       CLEAR     59  28  30 S9        29.79R
DRYDEN           N/A     76  53  44 SE14      29.79R
FORT STOCKTON  CLEAR     70  35  27 SE13      29.80S
GUAD PASS      PTCLDY    61  22  22 E14G24    29.91R
HOBBS          CLEAR     57  25  28 E8        29.85R
MARFA          CLEAR     51  18  27 CALM      29.90S
MIDLAND AIRPK  CLEAR     70  32  25 SE9       29.84R
MIDLAND INTL   CLEAR     69  29  22 E13       29.83R
ODESSA         CLEAR     65  28  24 E10       29.84R
PECOS          CLEAR     64  29  27 E7        29.77S
PRESIDIO       FAIR      77  23  13 NE6       29.75S
SEMINOLE       CLEAR     58  32  37 E8        29.85S
SNYDER         CLEAR     64  43  47 E14       29.87R
WINK           CLEAR     69  27  20 SE9       29.78S
$$
...OTHER STATIONS IN TEXAS...

CITY           SKY/WX    TMP DP  RH WIND       PRES   REMARKS
ABILENE        CLEAR     62  47  57 E9        29.87R
AMARILLO       CLEAR     52  39  61 SE14      29.89R
AUSTIN         PTCLDY    74  68  81 SE10      29.84R
BROWNSVILLE    CLOUDY    76  73  91 SE9       29.84R
CORPUS CHRISTI MOCLDY    73  72  96 SE10      29.83R
DALLAS FTW     PTCLDY    64  55  72 E7        29.88S
DEL RIO        CLEAR     74  67  78 SE10      29.81R
EL PASO        CLOUDY    76  22  13 W17G26    29.80R
HOUSTON INT    PTCLDY    73  68  84 S6        29.88R
LUBBOCK        PTCLDY    61  39  44 SE16      29.86R
SAN ANGELO     CLEAR     67  43  41 E7        29.84R
SAN ANTONIO    PTCLDY    73  67  81 SE13      29.85R
WACO           MOCLDY    66  62  87 N6        29.86R
WICHITA FALLS  NOT AVBL
$$
...OTHER LOCATIONS IN NEW MEXICO...

CITY           SKY/WX    TMP DP  RH WIND       PRES   REMARKS
ALAMAGORDO     MOCLDY    68  27  21 S10       29.81R
ALBUQUERQUE    CLOUDY    54  37  52 N8        29.87R
CANNON AFB     PTCLDY    55  32  41 SE10      29.84R
CLOVIS         PTCLDY    57  30  35 SE15      29.85S
HOLLOMAN AFB   CLOUDY    69  24  18 S9        29.83R
ROSWELL        CLOUDY    69  19  15 SW8         N/A
RUIDOSO        CLOUDY    54  18  24 SE8       29.95R
SANTA FE       CLOUDY    49  38  65 N6        29.89S
TRUTH OR CONSE MOCLDY    64  26  23 W10       29.82R
TUCUMCARI      MOCLDY    64  31  28 SE10      29.79R
$$




USA.gov is the U.S. government's official web portal to all federal, state and local government web resources and services.